Location: Condor
(52.3263°N, 114.5541°W)
Time: 22:35:45
(UTC+00:00)

Oscar 19 - Pass Details

Date: 08 December 2023
Orbit: 771 x 789 km, 98.9° (Epoch: 04 March)

Event Time Altitude Azimuth Distance (km) Brightness Sun altitude
Rises 12:01:36 0° 19° (NNE) 3,276 14.1 -31.2°
Reaches altitude 10° 12:04:01 10° 26° (NNE) 2,346 13.4 -30.8°
Maximum altitude 12:08:59 46° 99° (E) 1,054 11.6 -30.1°
Drops below altitude 10° 12:13:57 10° 172° (S) 2,341 13.2 -29.3°
Sets 12:16:21 0° 179° (S) 3,267 13.9 -28.9°
